Caldwell, TX

9:03 PM CDT on June 25, 2017 (GMT -0500)
Caldwell

Weather History for KRWV - March, 2014

Change the Weather History Date:

Monday, March 31, 2014

  Actual Average (KCLL) Record (KCLL)
Temperature  
Mean Temperature 66 °F -  
Max Temperature 80 °F 73 °F 94 °F (1946)
Min Temperature 53 °F 53 °F 29 °F (1937)
Cooling Degree Days 2    
Growing Degree Days 16 (Base 50)    
Moisture  
Dew Point 57 °F    
Average Humidity 77    
Maximum Humidity 100    
Minimum Humidity 42    
Precipitation  
Precipitation 0.00 in - - ()
Sea Level Pressure  
Sea Level Pressure 29.99 in    
Wind  
Wind Speed 11 mph (SSW)    
Max Wind Speed 20 mph    
Max Gust Speed 29 mph    
Visibility 10 miles    
Events      
Averages and records for this station are not official NWS values.
T = Trace of Precipitation, MM = Missing Value Source: NWS Daily Summary

Daily Weather History Graph

Daily Weather History Graph

Search for Another Location

Airport or City:

Trip Planner

Search our weather history database for the weather conditions in past years. The results will help you decide how hot, cold, wet, or windy it might be!

Date:

Astronomy

Mar. 31, 2014 Rise Set
Actual Time 7:17 AM CDT 7:45 PM CDT
Civil Twilight 6:52 AM CDT 8:09 PM CDT
Nautical Twilight 6:24 AM CDT 8:37 PM CDT
Astronomical Twilight 5:55 AM CDT 9:06 PM CDT
Moon 7:45 AM CDT (3/31) 8:58 PM CDT (3/31)
Length of Visible Light 13h 16m
Length of Day
12h 28m
New Moon, 1% of the Moon is Illuminated
Mar 31
New Moon
Apr 7
First Quarter
Apr 15
Full
Apr 22
Last Quarter
Apr 29
New

Hourly Weather History & Observations

Time (CDT) Temp. Heat Index Dew Point Humidity Pressure Visibility Wind Dir Wind Speed Gust Speed Precip Events Conditions
12:15 AM 55.4 °F - 50.0 °F 82% 30.09 in 10.0 mi South 11.5 mph - N/A   Clear
12:35 AM 55.4 °F - 50.0 °F 82% 30.08 in 10.0 mi South 11.5 mph - N/A   Clear
12:55 AM 55.4 °F - 50.0 °F 82% 30.08 in 10.0 mi SSW 9.2 mph - N/A   Clear
1:15 AM 53.6 °F - 50.0 °F 88% 30.08 in 10.0 mi South 9.2 mph - N/A   Clear
1:35 AM 53.6 °F - 50.0 °F 88% 30.07 in 10.0 mi South 8.1 mph - N/A   Clear
1:55 AM 53.6 °F - 51.8 °F 94% 30.06 in 10.0 mi South 10.4 mph - N/A   Scattered Clouds
2:15 AM 53.6 °F - 51.8 °F 94% 30.06 in 10.0 mi South 9.2 mph - N/A   Mostly Cloudy
2:35 AM 55.4 °F - 51.8 °F 88% 30.05 in 10.0 mi South 8.1 mph - N/A   Overcast
2:55 AM 55.4 °F - 51.8 °F 88% 30.05 in 10.0 mi South 9.2 mph - N/A   Overcast
3:15 AM 55.4 °F - 53.6 °F 94% 30.03 in 10.0 mi South 10.4 mph - N/A   Overcast
3:35 AM 55.4 °F - 53.6 °F 94% 30.02 in 10.0 mi South 10.4 mph - N/A   Overcast
3:55 AM 55.4 °F - 53.6 °F 94% 30.01 in 10.0 mi South 11.5 mph - N/A   Overcast
4:15 AM 55.4 °F - 53.6 °F 94% 30.01 in 10.0 mi South 11.5 mph - N/A   Overcast
4:35 AM 57.2 °F - 53.6 °F 88% 30.01 in 10.0 mi SSW 9.2 mph - N/A   Overcast
4:55 AM 57.2 °F - 55.4 °F 94% 30.00 in 10.0 mi South 9.2 mph - N/A   Overcast
5:15 AM 57.2 °F - 55.4 °F 94% 29.99 in 10.0 mi South 8.1 mph - N/A   Overcast
5:35 AM 57.2 °F - 55.4 °F 94% 29.99 in 10.0 mi South 6.9 mph - N/A   Overcast
5:55 AM 55.4 °F - 55.4 °F 100% 29.99 in 10.0 mi South 5.8 mph - N/A   Mostly Cloudy
6:15 AM 55.4 °F - 55.4 °F 100% 30.00 in 10.0 mi South 4.6 mph - N/A   Partly Cloudy
6:35 AM 53.6 °F - 53.6 °F 100% 30.01 in 10.0 mi South 3.5 mph - N/A   Mostly Cloudy
6:55 AM 53.6 °F - 53.6 °F 100% 30.00 in 10.0 mi South 5.8 mph - N/A   Mostly Cloudy
7:15 AM 53.6 °F - 53.6 °F 100% 30.01 in 10.0 mi South 4.6 mph - N/A   Mostly Cloudy
7:35 AM 53.6 °F - 53.6 °F 100% 30.01 in 10.0 mi South 5.8 mph - N/A   Mostly Cloudy
7:55 AM 55.4 °F - 55.4 °F 100% 30.00 in 8.0 mi South 8.1 mph - N/A   Scattered Clouds
8:15 AM 55.4 °F - 55.4 °F 100% 30.00 in 8.0 mi South 9.2 mph - N/A   Mostly Cloudy
8:35 AM 57.2 °F - 57.2 °F 100% 30.00 in 9.0 mi South 8.1 mph - N/A   Overcast
8:55 AM 59.0 °F - 59.0 °F 100% 30.00 in 10.0 mi South 13.8 mph - N/A   Mostly Cloudy
9:15 AM 60.8 °F - 60.8 °F 100% 30.00 in 10.0 mi SSW 11.5 mph 18.4 mph N/A   Scattered Clouds
9:35 AM 62.6 °F - 60.8 °F 94% 29.99 in 10.0 mi SSW 13.8 mph - N/A   Clear
9:55 AM 64.4 °F - 60.8 °F 88% 29.99 in 10.0 mi South 15.0 mph - N/A   Scattered Clouds
10:20 AM 66.2 °F - 60.8 °F 83% 30.00 in 10.0 mi SSW 12.7 mph 20.7 mph N/A   Mostly Cloudy
10:35 AM 66.2 °F - 60.8 °F 83% 30.03 in 10.0 mi SW 16.1 mph - N/A   Mostly Cloudy
10:55 AM 69.8 °F - 60.8 °F 73% 30.02 in 10.0 mi SW 17.3 mph 21.9 mph N/A   Mostly Cloudy
11:15 AM 69.8 °F - 60.8 °F 73% 30.02 in 10.0 mi SSW 15.0 mph 19.6 mph N/A   Scattered Clouds
11:35 AM 71.6 °F - 60.8 °F 69% 30.02 in 10.0 mi SSW 17.3 mph 24.2 mph N/A   Scattered Clouds
11:55 AM 71.6 °F - 60.8 °F 69% 30.01 in 10.0 mi SSW 17.3 mph 26.5 mph N/A   Partly Cloudy
12:15 PM 73.4 °F - 60.8 °F 65% 30.01 in 10.0 mi SSW 16.1 mph 20.7 mph N/A   Scattered Clouds
12:35 PM 73.4 °F - 60.8 °F 65% 29.99 in 10.0 mi SSW 17.3 mph 21.9 mph N/A   Scattered Clouds
12:55 PM 75.2 °F - 59.0 °F 57% 29.99 in 10.0 mi SW 19.6 mph 26.5 mph N/A   Partly Cloudy
1:15 PM 75.2 °F - 59.0 °F 57% 29.98 in 10.0 mi SSW 15.0 mph 27.6 mph N/A   Partly Cloudy
1:35 PM 77.0 °F - 59.0 °F 54% 29.98 in 10.0 mi SW 19.6 mph 28.8 mph N/A   Partly Cloudy
1:55 PM 77.0 °F - 57.2 °F 50% 29.97 in 10.0 mi SSW 19.6 mph 25.3 mph N/A   Partly Cloudy
2:15 PM 78.8 °F - 57.2 °F 47% 29.97 in 10.0 mi SSW 19.6 mph 24.2 mph N/A   Clear
2:35 PM 78.8 °F - 57.2 °F 47% 29.96 in 10.0 mi SW 17.3 mph - N/A   Partly Cloudy
2:55 PM 78.8 °F - 55.4 °F 44% 29.95 in 10.0 mi SW 12.7 mph 21.9 mph N/A   Partly Cloudy
3:15 PM 78.8 °F - 55.4 °F 44% 29.94 in 10.0 mi SSW 17.3 mph 23.0 mph N/A   Clear
3:35 PM 78.8 °F - 55.4 °F 44% 29.94 in 10.0 mi SSW 17.3 mph 23.0 mph N/A   Clear
3:55 PM 80.6 °F 80.5 °F 55.4 °F 42% 29.93 in 10.0 mi SW 16.1 mph 21.9 mph N/A   Scattered Clouds
4:15 PM 78.8 °F - 55.4 °F 44% 29.93 in 10.0 mi SSW 12.7 mph 21.9 mph N/A   Scattered Clouds
4:35 PM 78.8 °F - 57.2 °F 47% 29.93 in 10.0 mi South 13.8 mph - N/A   Mostly Cloudy
4:55 PM 77.0 °F - 57.2 °F 50% 29.92 in 10.0 mi South 13.8 mph 19.6 mph N/A   Scattered Clouds
5:15 PM 77.0 °F - 57.2 °F 50% 29.92 in 10.0 mi SSW 15.0 mph - N/A   Mostly Cloudy
5:35 PM 75.2 °F - 57.2 °F 53% 29.92 in 10.0 mi South 18.4 mph - N/A   Overcast
5:55 PM 77.0 °F - 57.2 °F 50% 29.92 in 10.0 mi SSW 12.7 mph - N/A   Mostly Cloudy
6:15 PM 75.2 °F - 57.2 °F 53% 29.92 in 10.0 mi South 13.8 mph 20.7 mph N/A   Scattered Clouds
6:35 PM 75.2 °F - 57.2 °F 53% 29.92 in 10.0 mi South 17.3 mph 21.9 mph N/A   Clear
6:55 PM 75.2 °F - 59.0 °F 57% 29.92 in 10.0 mi South 11.5 mph - N/A   Clear
7:15 PM 73.4 °F - 59.0 °F 61% 29.92 in 10.0 mi South 11.5 mph - N/A   Clear
7:35 PM 71.6 °F - 59.0 °F 64% 29.92 in 10.0 mi South 11.5 mph - N/A   Clear
7:55 PM 71.6 °F - 59.0 °F 64% 29.93 in 10.0 mi South 10.4 mph - N/A   Clear
8:15 PM 69.8 °F - 60.8 °F 73% 29.94 in 10.0 mi South 9.2 mph - N/A   Clear
8:35 PM 69.8 °F - 60.8 °F 73% 29.95 in 10.0 mi South 9.2 mph - N/A   Clear
8:55 PM 68.0 °F - 60.8 °F 78% 29.96 in 10.0 mi South 8.1 mph - N/A   Clear
9:15 PM 66.2 °F - 60.8 °F 83% 29.97 in 10.0 mi South 6.9 mph - N/A   Clear
9:35 PM 66.2 °F - 60.8 °F 83% 29.98 in 10.0 mi South 6.9 mph - N/A   Clear
9:55 PM 66.2 °F - 60.8 °F 83% 29.98 in 10.0 mi South 9.2 mph - N/A   Clear
10:15 PM 64.4 °F - 60.8 °F 88% 29.99 in 10.0 mi South 8.1 mph - N/A   Clear
10:35 PM 64.4 °F - 62.6 °F 94% 29.99 in 10.0 mi South 8.1 mph - N/A   Clear
10:55 PM 64.4 °F - 62.6 °F 94% 29.99 in 10.0 mi South 8.1 mph - N/A   Clear
11:15 PM 64.4 °F - 62.6 °F 94% 29.99 in 10.0 mi South 9.2 mph - N/A   Clear
11:35 PM 64.4 °F - 62.6 °F 94% 30.00 in 10.0 mi South 9.2 mph - N/A   Clear
11:55 PM 64.4 °F - 64.4 °F 100% 30.00 in 10.0 mi South 8.1 mph - N/A   Clear